Location: Vancouver
(49.2500°N, 123.1330°W)
Time: 21:42:59
(UTC-07:00)

Transit 2A Rocket - Visible Passes

Search period start: 26 April 2018 00:00
Search period end: 06 May 2018 00:00
Orbit: 591 x 912 km, 66.7° (Epoch: 26 April)

Date Brightness Start Highest point End Pass type
(mag) Time Alt. Az. Time Alt. Az. Time Alt. Az.
26 Apr 6.9 01:11:28 10° NNW 01:15:08 22° NNE 01:18:33 10° E visible
26 Apr 4.4 02:53:41 10° NW 02:58:17 78° SW 02:58:23 77° SW visible
26 Apr 7.6 20:59:36 10° WNW 21:02:50 16° NNW 21:05:55 10° NNE visible
27 Apr 7.3 00:29:14 10° NNW 00:32:16 17° NNE 00:35:10 10° ENE visible
27 Apr 4.9 02:11:13 10° NNW 02:15:49 64° NE 02:16:16 59° E visible
27 Apr 6.5 03:54:48 10° WNW 03:56:08 15° W 03:56:08 15° W visible
27 Apr 8.0 22:03:53 10° NNW 22:04:27 10° N 22:05:02 10° N visible
27 Apr 7.4 23:47:03 10° N 23:49:18 13° NNE 23:51:29 10° NE visible
28 Apr 5.7 01:28:51 10° NNW 01:33:13 40° NE 01:34:18 34° ENE visible
28 Apr 5.9 03:11:41 10° NW 03:14:10 25° WNW 03:14:10 25° WNW visible
28 Apr 7.8 21:19:42 10° NW 21:21:23 11° NNW 21:23:01 10° N visible
28 Apr 7.6 23:04:57 10° N 23:06:16 11° NNE 23:07:34 10° NNE visible
29 Apr 6.4 00:46:33 10° NNW 00:50:32 27° NE 00:52:25 20° ENE visible
29 Apr 5.2 02:28:57 10° NW 02:32:18 42° WNW 02:32:18 42° WNW visible
30 Apr 6.9 00:04:18 10° NNW 00:07:43 20° NNE 00:10:38 11° ENE visible
30 Apr 4.7 01:46:24 10° NW 01:50:30 70° NNW 01:50:30 70° NNW visible
30 Apr 7.2 23:22:05 10° NNW 23:24:49 15° NNE 23:27:27 10° ENE visible
01 May 5.0 01:03:59 10° NNW 01:08:30 54° NE 01:08:46 53° ENE visible
01 May 6.6 02:47:15 10° WNW 02:48:38 16° WNW 02:48:38 16° WNW visible
01 May 7.3 22:39:56 10° N 22:41:50 12° NNE 22:43:40 10° NE visible
02 May 5.9 00:21:38 10° NNW 00:25:52 34° NE 00:27:05 29° ENE visible
02 May 5.9 02:04:19 10° NW 02:06:58 28° WNW 02:06:58 28° WNW visible
02 May 7.6 21:57:59 10° N 21:58:47 10° N 21:59:34 10° NNE visible
02 May 6.5 23:39:21 10° NNW 23:43:08 24° NE 23:45:26 16° ENE visible
03 May 5.0 01:21:39 10° NW 01:25:19 52° WNW 01:25:19 52° WNW visible
03 May 6.9 22:57:08 10° NNW 23:00:18 18° NNE 23:03:20 10° ENE visible
04 May 4.5 00:39:08 10° NNW 00:43:42 75° NE 00:43:43 75° NE visible
04 May 6.9 02:23:06 10° WNW 02:23:36 11° WNW 02:23:36 11° WNW visible
04 May 7.1 22:14:57 10° N 22:17:22 14° NNE 22:19:42 10° NE visible
04 May 5.3 23:56:45 10° NNW 00:01:09 46° NE 00:02:08 39° E visible
05 May 6.3 01:39:46 10° WNW 01:42:01 21° W 01:42:01 21° W visible
05 May 7.3 21:32:53 10° N 21:34:22 11° NNE 21:35:48 10° NNE visible
05 May 6.0 23:14:25 10° NNW 23:18:30 30° NE 23:20:35 20° E visible
